[[{"header":{"parameterUnit":"m.s-1","parameterCategory":1,"la1":30.2991,"la2":30.254,"lo1":-89.0895,"lo2":-89.0444,"dy":0.0017,"dx":0.0017,"nx":28,"ny":28,"refTime":"2025-02-27T03:00:00:Z","depth":0,"parameterNumber":2,"parameterNumberName":"U-component_of_WINDS"},"data":[0,0,0,0,0,0,0,0,0,0,0,0,0,0,0,0,0,0,0,0,0,0,0,0,0,0,0,0,0,0,0,0,0,0,0,0,0,0,0,0,0,0,0,0,0,0,0,0,0,0,0,0,0,0,0,0,0,0,1.7778,1.7778,0,1.7725,1.7724,1.7724,1.7658,1.7657,1.7655,1.7654,1.7601,1.76,1.76,0,0,0,0,0,0,0,0,0,0,0,0,0,1.7823,1.7823,1.7778,1.7778,1.7777,1.7725,1.7724,1.7723,1.7658,1.7656,1.7655,1.7654,1.7601,1.76,1.76,0,0,0,0,0,0,0,0,0,0,0,0,0,1.779,1.7822,1.7778,1.7738,1.7734,1.7725,1.7724,1.7723,1.7658,1.7656,1.7655,1.7653,1.7601,1.76,1.76,1.7627,0,0,1.7598,1.7597,0,0,0,0,0,0,0,0,1.7792,1.7789,1.7745,1.7741,1.7736,1.7696,1.772,1.7691,1.7658,1.7687,1.7654,1.7653,1.7634,1.763,1.7624,1.7625,1.7622,1.7598,1.7597,1.7597,1.7597,0,0,0,0,0,0,0,1.7794,1.779,1.7757,1.7744,1.7739,1.7722,1.7716,1.7714,1.767,1.7684,1.7679,1.7674,1.7631,1.7625,1.7622,1.7621,1.7598,1.7597,1.7597,1.7596,1.7639,1.7641,0,0,0,0,0,0,1.7803,1.7793,1.7759,1.7756,1.7761,1.7723,1.7715,1.7711,1.767,1.7662,1.7675,1.7671,1.7627,1.7623,1.762,1.7647,1.7597,1.7596,1.7596,1.7638,1.7639,1.7641,0,0,0,0,0,0,1.7804,1.78,1.7761,1.7773,1.7766,1.7724,1.7719,1.771,1.7704,1.7663,1.7655,1.7677,1.7625,1.7621,1.7625,1.7644,1.7596,1.7595,1.7636,1.7638,1.764,1.7703,0,0,0,0,0,0,1.7806,1.7801,1.7811,1.7773,1.7766,1.7767,1.772,1.771,1.7703,1.7696,1.7662,1.7655,1.7624,1.7626,1.7624,1.7643,1.7595,1.7634,1.7637,1.7639,1.7699,1.7708,1.7715,0,0,0,0,0,1.7807,1.7832,1.7812,1.7808,1.7778,1.7769,1.7764,1.7728,1.7704,1.7714,1.7687,1.7656,1.7643,1.7627,1.7625,1.7643,1.7632,1.7636,1.7639,1.7696,1.7706,1.7714,0,0,0,0,0,0,1.7874,1.7826,1.7804,1.7817,1.7797,1.7758,1.7768,1.774,1.7727,1.7722,1.7677,1.767,1.7679,1.7661,1.7645,1.7666,1.7633,1.7636,1.7677,1.7686,1.7694,1.7697,1.7594,0,0,0,0,0,1.789,1.7886,1.7845,1.7861,1.7852,1.7812,1.7807,1.778,1.7758,1.7749,1.7723,1.7703,1.7694,1.7689,1.7679,1.7697,1.7687,1.7708,1.7715,1.7722,1.7725,1.773,1.7739,1.7652,1.7652,1.7652,0,0,1.7923,1.7897,1.7898,1.7873,1.7855,1.7852,1.7806,1.7805,1.7802,1.7749,1.7751,1.7731,1.7706,1.7716,1.7719,1.7702,1.7746,1.7726,1.7732,1.7731,1.7735,1.7743,1.775,1.7655,1.7654,1.7654,0,0,1.7982,1.7963,1.7972,1.7954,1.7927,1.79,1.7902,1.7866,1.7851,1.7852,1.7812,1.7808,1.7794,1.7777,1.7766,1.7817,1.7787,1.7815,1.7854,1.786,1.7867,1.7873,1.7889,1.7896,1.7818,1.7818,1.7818,0,1.8027,1.8021,1.7981,1.7982,1.7972,1.7924,1.7932,1.7917,1.7888,1.7882,1.7863,1.7842,1.7822,1.7827,1.7839,1.7833,1.7833,1.7818,1.7869,1.7875,1.788,1.7894,1.7901,1.7822,1.7821,1.7821,1.7821,0,1.8076,1.8073,1.8084,1.8055,1.8047,1.8052,1.8012,1.8008,1.7982,1.7957,1.7958,1.7931,1.7914,1.7913,1.7888,1.7914,1.7903,1.7878,1.7843,1.7892,1.7905,1.7911,1.7827,1.7825,1.7824,1.7823,0,0,1.8176,1.8124,1.8129,1.8115,1.808,1.8076,1.8079,1.8061,1.8057,1.8039,1.8039,1.8027,1.8002,1.7991,1.7963,1.7969,1.8008,1.7942,1.794,1.7953,1.8032,1.8051,1.8058,1.7988,1.7989,1.799,1.8034,0,1.8227,1.8228,1.8191,1.8202,1.8197,1.8151,1.8152,1.8131,1.8108,1.81,1.8074,1.8066,1.8034,1.8026,1.803,1.8003,1.8023,1.7999,1.7987,1.7987,1.7993,1.8065,1.8086,1.8128,1.8039,1.804,1.804,0,1.8287,1.827,1.828,1.8243,1.824,1.8242,1.8222,1.8215,1.819,1.8172,1.8158,1.8126,1.8125,1.8094,1.809,1.8075,1.8068,1.8053,1.8054,1.805,1.8016,1.8062,1.8141,1.8147,1.8048,1.8048,1.8047,0,1.8356,1.8336,1.8339,1.8329,1.8286,1.8289,1.8271,1.8244,1.8235,1.8218,1.8211,1.8194,1.8184,1.8172,1.8136,1.8116,1.8136,1.8102,1.812,1.8121,1.8126,1.8126,1.8203,1.8124,1.8124,1.8124,1.8124,0,1.8416,1.8423,1.8369,1.8371,1.8378,1.8336,1.8343,1.8321,1.8297,1.8293,1.8253,1.825,1.8203,1.8195,1.8167,1.8167,1.8164,1.8149,1.8141,1.8151,1.8153,1.8145,1.8141,1.8125,1.8125,1.8125,1.8124,0,1.8494,1.8458,1.8458,1.8417,1.8407,1.8414,1.8379,1.8378,1.8352,1.8347,1.8344,1.8303,1.829,1.8253,1.8232,1.8213,1.8221,1.8208,1.823,1.8225,1.8244,1.8242,1.8318,1.8325,1.8244,1.8244,1.8245,0,1.8534,1.8538,1.8498,1.8492,1.8476,1.8468,1.8458,1.8416,1.8408,1.8378,1.8381,1.8365,1.835,1.8333,1.8301,1.8284,1.8268,1.8296,1.8265,1.8275,1.8266,1.8266,1.8265,1.8302,1.8303,1.8304,1.8305,0,1.8608,1.8589,1.8577,1.8558,1.8547,1.853,1.8511,1.8509,1.8462,1.8455,1.8441,1.843,1.8407,1.8392,1.8369,1.8351,1.832,1.8315,1.8318,1.8328,1.834,1.8332,1.8246,1.8313,1.8312,1.8312,1.8311,1.8311,1.8666,1.8667,1.8639,1.8626,1.8607,1.8589,1.8586,1.8559,1.8547,1.8525,1.8502,1.8491,1.8463,1.843,1.8413,1.8403,1.8387,1.8392,1.8393,1.8394,1.8398,1.8343,1.8399,1.8399,1.8399,1.8399,1.8398,0,1.8736,1.8715,1.8704,1.8678,1.8667,1.8639,1.8616,1.8609,1.86,1.8577,1.8562,1.8546,1.8531,1.8497,1.8478,1.8476,1.8461,1.8472,1.8471,1.8467,1.8415,1.8413,1.8485,1.8485,1.8485,1.8485,1.8485,1.8485,1.8772,1.8771,1.8749,1.8739,1.8718,1.8706,1.8695,1.8678,1.8659,1.8643,1.863,1.8608,1.858,1.8558,1.8542,1.8532,1.8526,1.8542,1.8528,1.8479,1.8471,1.8463,1.8461,1.8541,1.8541,1.858,1.858,1.8581]},{"header":{"parameterUnit":"m.s-1","parameterCategory":1,"la1":30.2991,"la2":30.254,"lo1":-89.0895,"lo2":-89.0444,"dy":0.0017,"dx":0.0017,"nx":28,"ny":28,"refTime":"2025-02-27T03:00:00:Z","depth":0,"parameterNumber":3,"parameterNumberName":"V-component_of_WINDS"},"data":[0,0,0,0,0,0,0,0,0,0,0,0,0,0,0,0,0,0,0,0,0,0,0,0,0,0,0,0,0,0,0,0,0,0,0,0,0,0,0,0,0,0,0,0,0,0,0,0,0,0,0,0,0,0,0,0,0,0,1.8402,1.84,0,1.8212,1.821,1.8208,1.8101,1.8101,1.8101,1.81,1.7904,1.7899,1.7894,0,0,0,0,0,0,0,0,0,0,0,0,0,1.8667,1.8663,1.8402,1.8399,1.8397,1.8212,1.821,1.8207,1.8101,1.8101,1.8101,1.81,1.7906,1.79,1.7894,0,0,0,0,0,0,0,0,0,0,0,0,0,1.8522,1.8661,1.8402,1.8322,1.8313,1.8213,1.821,1.8207,1.8102,1.8101,1.8101,1.81,1.7908,1.79,1.7893,1.7858,0,0,1.7871,1.7867,0,0,0,0,0,0,0,0,1.853,1.8512,1.8336,1.8327,1.8317,1.818,1.8231,1.8089,1.8102,1.8182,1.81,1.81,1.7996,1.7981,1.7947,1.7848,1.784,1.787,1.7866,1.7862,1.786,0,0,0,0,0,0,0,1.8541,1.852,1.8327,1.8334,1.8322,1.8294,1.8273,1.8204,1.8094,1.8175,1.8167,1.8146,1.7991,1.7954,1.7942,1.7837,1.787,1.7864,1.7859,1.7856,1.7697,1.7698,0,0,0,0,0,0,1.8564,1.8529,1.8333,1.8321,1.8425,1.829,1.8266,1.8224,1.8094,1.8074,1.8146,1.8142,1.7967,1.795,1.7934,1.7883,1.7862,1.7855,1.7851,1.7697,1.7697,1.7698,0,0,0,0,0,0,1.857,1.8548,1.834,1.8423,1.8394,1.8286,1.824,1.8221,1.8184,1.8073,1.8053,1.813,1.7966,1.7945,1.7877,1.7874,1.7852,1.7845,1.7697,1.7697,1.7698,1.778,0,0,0,0,0,0,1.8578,1.855,1.8537,1.8423,1.839,1.8288,1.824,1.8218,1.8172,1.8164,1.8052,1.8033,1.7964,1.7889,1.787,1.7864,1.784,1.7697,1.7697,1.7697,1.7777,1.7784,1.7789,0,0,0,0,0,1.8588,1.8568,1.8537,1.8514,1.8371,1.8288,1.8269,1.8191,1.8173,1.8157,1.8085,1.8036,1.7878,1.7883,1.786,1.7852,1.7696,1.7697,1.7697,1.7775,1.7782,1.7789,0,0,0,0,0,0,1.8683,1.8551,1.8516,1.8458,1.8385,1.827,1.8249,1.8201,1.8131,1.8127,1.8032,1.8007,1.7949,1.7893,1.7901,1.781,1.7782,1.7778,1.7848,1.7854,1.786,1.7874,1.7834,0,0,0,0,0,1.8698,1.8643,1.853,1.849,1.8455,1.8358,1.8319,1.8265,1.8185,1.8154,1.8077,1.8,1.7933,1.789,1.7822,1.7769,1.7742,1.7752,1.7758,1.7763,1.7761,1.7727,1.7729,1.7699,1.7699,1.7699,0,0,1.8727,1.8648,1.8619,1.8507,1.8444,1.8387,1.8333,1.8275,1.8232,1.8144,1.8076,1.8017,1.7925,1.7864,1.7833,1.7816,1.7763,1.7764,1.7769,1.7763,1.7727,1.773,1.7733,1.77,1.7699,1.7699,0,0,1.8751,1.8686,1.8645,1.8583,1.8488,1.8424,1.8414,1.8306,1.8263,1.8193,1.8126,1.8072,1.7958,1.7895,1.7848,1.7846,1.7798,1.7827,1.7856,1.7824,1.7827,1.7828,1.7827,1.7827,1.7825,1.7825,1.7825,0,1.8798,1.8712,1.863,1.8576,1.8528,1.8446,1.8403,1.8346,1.8234,1.8202,1.8184,1.8039,1.7971,1.7894,1.7893,1.7858,1.7843,1.7839,1.7833,1.7834,1.7834,1.7831,1.7831,1.7829,1.7828,1.7828,1.7828,0,1.8774,1.8715,1.8693,1.8587,1.8536,1.8488,1.8397,1.8355,1.8305,1.8243,1.8171,1.8087,1.8,1.7977,1.7928,1.7892,1.7884,1.7851,1.7821,1.7842,1.7838,1.7837,1.7835,1.7833,1.7832,1.7831,0,0,1.8854,1.8703,1.8696,1.8646,1.8535,1.8487,1.8434,1.8349,1.8314,1.8239,1.8191,1.8096,1.8065,1.8011,1.7954,1.7926,1.7928,1.7896,1.7892,1.7904,1.7882,1.7908,1.7908,1.7896,1.7895,1.7895,1.789,0,1.8861,1.8764,1.8688,1.8618,1.8561,1.8482,1.8435,1.8361,1.8301,1.8242,1.8174,1.8108,1.8072,1.8039,1.8008,1.7935,1.7923,1.7934,1.785,1.7848,1.7875,1.7906,1.7933,1.7932,1.7888,1.7887,1.7887,0,1.8857,1.8786,1.8711,1.8604,1.8577,1.8537,1.8452,1.8398,1.8312,1.8269,1.8209,1.815,1.8088,1.8064,1.7978,1.7987,1.7948,1.7907,1.7905,1.7894,1.7869,1.7895,1.793,1.793,1.7884,1.7884,1.7884,0,1.8922,1.8806,1.8746,1.8706,1.8581,1.8554,1.85,1.8413,1.8367,1.8292,1.826,1.818,1.8136,1.8074,1.7993,1.7983,1.7915,1.7884,1.7877,1.7879,1.7867,1.7869,1.7895,1.7842,1.7842,1.7842,1.7842,0,1.8938,1.8895,1.8774,1.8737,1.8686,1.8597,1.8549,1.8488,1.8411,1.8359,1.8286,1.8239,1.8135,1.8076,1.8012,1.795,1.793,1.7894,1.7877,1.79,1.7905,1.7873,1.7871,1.7842,1.7842,1.7842,1.7842,0,1.9002,1.8919,1.8848,1.8735,1.8705,1.8673,1.8574,1.8535,1.8469,1.8405,1.8385,1.8282,1.8208,1.8121,1.8019,1.7976,1.7918,1.7894,1.7948,1.7938,1.7936,1.7937,1.7943,1.7939,1.789,1.7891,1.7891,0,1.9018,1.8983,1.8866,1.8827,1.8775,1.8713,1.8665,1.8575,1.8528,1.8426,1.8398,1.8318,1.825,1.8134,1.805,1.7971,1.7944,1.7951,1.7931,1.7955,1.7943,1.7946,1.7942,1.7957,1.7958,1.7959,1.7959,0,1.9054,1.9015,1.8949,1.8868,1.8813,1.8745,1.8674,1.8646,1.8542,1.8492,1.8415,1.8362,1.8257,1.8178,1.8088,1.8031,1.7977,1.7966,1.796,1.7983,1.8015,1.7997,1.7962,1.7967,1.7966,1.7965,1.7965,1.7965,1.9094,1.9059,1.8971,1.8899,1.8836,1.8771,1.8728,1.8657,1.8592,1.85,1.845,1.8374,1.8287,1.816,1.8105,1.8043,1.8025,1.8017,1.8014,1.8014,1.802,1.8026,1.8026,1.8026,1.8026,1.8025,1.8025,0,1.9126,1.9065,1.9,1.8903,1.8847,1.8802,1.872,1.8675,1.861,1.8533,1.8467,1.8377,1.83,1.8209,1.8126,1.8094,1.8067,1.8075,1.8076,1.8064,1.8041,1.8054,1.8098,1.8098,1.8098,1.8098,1.8098,1.8098,1.9136,1.9074,1.9023,1.8928,1.8867,1.8793,1.875,1.8688,1.8626,1.8531,1.8466,1.8408,1.8324,1.8234,1.8161,1.8136,1.8108,1.8123,1.8091,1.8072,1.8066,1.806,1.8072,1.8118,1.8118,1.8119,1.8119,1.8119]}]]